Lid_Strength_Index
-1 -1 -1 2 8 8 10 9 7 9 8 6 7 7 6 5 6 10 1 0 -0 -0 -1 -1 -1 -1 -1 -1 -1 -1 -1 -2 -1 -1 -1 -2 -2 -2 -2 -2 -2 -2 -2 -2 -2 -2 -2 -2 -2
-1 -0 1 4 9 11 10 7 8 7 7 6 5 6 6 7 4 3 2 0 -0 -0 -1 -1 -1 -1 -1 -1 -1 -1 -1 -1 -1 -1 -1 -1 -2 -2 -2 -2 -2 -2 -2 -1 -2 -2 -2 -1 -1
-0 0 4 7 9 11 10 7 7 6 6 7 6 4 5 6 3 3 1 -0 -0 -0 -1 -1 -1 -1 -1 -1 -1 -1 -1 -1 -1 -1 -1 -1 -1 -2 -2 -2 -2 -2 -2 -2 -1 -2 -1 -1 -1
1 2 4 9 10 8 8 6 6 6 7 6 5 6 4 2 3 1 0 -0 -0 -0 -1 -1 -1 -1 -1 -1 -1 -1 -1 -1 -1 -1 -1 -1 -1 -2 -2 -2 -2 -2 -2 -1 -1 -1 -1 -1 -1
2 4 8 10 9 7 6 6 6 6 6 6 5 7 6 3 1 0 0 -0 0 -0 -1 -1 -1 -1 -1 -1 -1 -1 -1 -1 -1 -1 -1 -1 -1 -1 -2 -2 -2 -2 -2 -2 -1 -1 -1 -1 -1
6 5 11 11 9 7 6 5 5 6 6 5 6 6 6 2 2 1 0 0 -0 -0 -0 -1 -1 -1 -1 -1 -2 -2 -1 -1 -1 -2 -1 -1 -1 -1 -2 -1 -1 -1 -1 -1 -1 -1 -1 -1 -1
7 8 10 9 9 9 7 5 6 6 6 6 4 7 5 4 2 1 0 -0 -0 -0 -0 -1 -1 -1 -1 -1 -2 -2 -2 -1 -1 -2 -2 -1 -1 -2 -1 -1 -1 -1 -1 -1 -1 -1 -1 -1 -1
5 8 10 9 10 10 6 6 5 5 6 4 4 7 8 4 2 1 0 0 0 -0 -0 -0 -1 -1 -1 -1 -1 -2 -1 -1 -1 -1 -1 -0 -1 -1 -2 -2 -1 -1 -1 -1 -1 -1 -1 -1 -1
4 11 12 10 10 9 6 6 5 4 5 5 4 5 4 2 1 2 2 1 1 1 0 -0 -0 -1 -1 -1 -1 -1 -1 -1 -1 -0 -0 -0 -1 -1 -1 -0 -1 -1 -1 -1 -1 -1 -1 -1 -2
8 12 10 7 6 7 6 6 6 6 6 6 5 3 3 3 3 3 3 3 2 2 1 0 -0 -0 -0 -1 -1 -1 -1 -1 -1 -1 -1 -1 -1 -1 -1 -1 -1 -1 -1 -1 -1 -1 -1 -2 -1
8 11 7 7 6 5 6 7 5 6 7 6 6 5 4 4 3 4 3 2 2 2 1 0 0 -0 -0 -1 -1 -1 -1 -1 -1 -1 -1 -1 -1 -1 -1 -1 -1 -1 -0 -1 -1 -1 -1 -1 -1
10 8 7 7 5 6 7 5 6 6 6 4 4 3 4 4 4 4 3 3 2 2 1 0 -0 -0 -0 -0 -1 -1 -1 -1 -1 -1 -1 -1 -1 -1 -1 -1 -1 -1 -1 -1 -1 -1 -1 -1 -1
9 7 7 6 6 5 5 6 7 6 4 3 3 3 4 4 4 3 2 2 2 2 1 0 0 -0 -0 -0 -0 -1 -1 -1 -1 -1 -1 -1 -1 -1 -1 -1 -1 -1 -1 -1 -1 -1 -1 -1 -1
6 7 7 6 7 6 7 6 6 6 4 4 4 4 4 4 3 3 3 3 2 2 1 0 0 -0 -0 -0 -0 -0 -1 -1 -1 -1 -1 -1 -1 -1 -1 -1 -1 -1 -1 -1 -1 -1 -0 -0 -1
6 8 7 8 8 8 6 9 8 5 4 5 4 4 4 4 3 3 2 2 2 1 1 1 0 -0 0 -0 -0 -1 -1 -1 -1 -1 -1 -1 -1 -1 -1 -1 -0 -1 -1 -1 -1 -1 -1 -0 -0
8 8 13 8 7 7 7 11 7 5 5 5 5 4 4 4 4 4 2 2 1 1 1 0 0 0 -0 0 -0 -0 -1 -1 -1 -1 -1 -1 -1 -1 -1 -0 -0 -1 -1 -1 -0 -0 0 0 0
10 13 12 10 7 8 8 10 7 5 5 6 5 4 4 4 4 4 5 1 1 1 1 1 0 0 0 -0 -0 -0 -1 -1 -1 -1 -1 -1 -1 -1 -1 -0 -1 -1 -1 -0 -0 0 0 1 1
13 12 11 11 9 8 10 10 8 6 6 6 5 5 4 4 4 4 4 5 3 1 1 1 0 0 0 -0 -0 -0 -0 -0 -1 -1 -1 -1 -1 -1 -1 -1 -0 -1 -0 0 0 0 0 1 1
9 10 11 9 8 10 10 10 9 7 6 6 6 5 5 4 3 3 4 4 5 3 1 1 1 1 0 1 1 1 1 0 0 -0 -1 -1 -1 -1 -1 -0 -0 -0 0 0 0 0 1 1 0
9 10 11 9 8 9 10 10 8 7 6 6 6 5 5 4 3 3 3 4 5 5 2 1 1 1 1 1 0 0 1 0 -0 -0 -0 -1 -1 -1 -0 -0 -0 -0 0 0 0 1 1 1 1
10 10 11 11 10 9 9 11 9 7 6 5 5 4 4 4 4 3 4 4 4 4 4 3 2 1 0 0 0 1 2 2 1 0 0 1 2 2 2 2 1 0 0 1 1 1 1 2 1
12 8 9 10 12 15 9 14 9 9 8 7 6 5 5 4 3 3 3 4 4 4 3 3 2 2 2 2 1 1 2 2 2 1 1 2 2 2 2 2 1 1 -0 0 0 0 1 1 3
10 8 9 10 12 11 12 14 10 8 10 8 6 6 5 4 4 3 3 3 4 3 3 3 3 3 3 3 3 2 3 3 3 4 3 3 3 3 3 3 3 2 1 1 0 0 0 1 1
7 9 10 10 11 16 12 12 11 10 9 7 7 6 5 5 5 4 3 4 4 3 3 3 3 3 3 3 3 3 3 3 3 3 3 3 3 3 4 4 3 3 2 2 2 1 1 1 2
9 11 17 17 18 17 11 12 11 8 7 6 7 7 5 5 5 5 5 4 4 4 4 4 4 4 3 3 3 3 3 3 4 4 4 4 4 4 4 5 4 4 4 4 3 2 2 2 1
10 10 15 19 18 15 11 15 11 7 5 5 5 5 5 6 5 4 4 4 4 4 4 4 4 4 4 4 4 4 4 4 4 5 5 5 6 6 6 6 5 6 5 5 4 3 2 2 2
11 14 10 14 12 14 13 11 8 6 6 6 5 6 5 5 5 5 5 4 4 4 4 4 4 5 5 5 5 5 5 5 6 6 6 6 6 7 7 6 7 6 6 6 5 4 3 3 2
9 8 14 13 19 18 14 12 12 9 8 7 7 6 6 5 5 5 5 5 4 4 4 4 5 5 5 5 5 6 6 7 7 7 7 7 7 8 7 7 7 7 7 6 6 5 4 4 4
11 12 11 11 13 17 16 13 8 8 7 7 6 5 5 5 5 4 4 3 3 3 4 5 5 5 5 6 7 7 7 7 7 7 7 7 8 8 8 8 8 8 8 7 6 6 6 5 5
10 11 10 15 15 13 15 13 7 6 6 6 6 5 4 4 4 4 3 3 3 3 4 4 5 6 6 6 6 7 7 7 7 7 8 8 8 8 8 8 8 8 8 8 7 7 6 6 7